Year,Month,Day,Hour,Minute,Value (Times are PST for windgust in km/hr)
2006,01,30,00,00,4.80
2006,01,30,00,01,6.40
2006,01,30,00,02,11.30
2006,01,30,00,03,8.10
2006,01,30,00,04,1.60
2006,01,30,00,05,12.90
2006,01,30,00,06,6.40
2006,01,30,00,07,1.60
2006,01,30,00,08,1.60
2006,01,30,00,09,4.80
2006,01,30,00,10,9.60
2006,01,30,00,11,1.60
2006,01,30,00,12,3.20
2006,01,30,00,13,4.80
2006,01,30,00,14,8.10
2006,01,30,00,15,12.90
2006,01,30,00,16,9.60
2006,01,30,00,17,6.40
2006,01,30,00,18,3.20
2006,01,30,00,19,6.40
2006,01,30,00,20,3.20
2006,01,30,00,21,4.80
2006,01,30,00,22,8.10
2006,01,30,00,23,3.20
2006,01,30,00,24,3.20
2006,01,30,00,25,6.40
2006,01,30,00,26,3.20
2006,01,30,00,27,0.00
2006,01,30,00,28,0.00
2006,01,30,00,29,1.60
2006,01,30,00,30,4.80
2006,01,30,00,31,4.80
2006,01,30,00,32,3.20
2006,01,30,00,33,3.20
2006,01,30,00,34,1.60
2006,01,30,00,35,1.60
2006,01,30,00,36,0.00
2006,01,30,00,37,0.00
2006,01,30,00,38,6.40
2006,01,30,00,39,4.80
2006,01,30,00,40,4.80
2006,01,30,00,41,3.20
2006,01,30,00,42,4.80
2006,01,30,00,43,1.60
2006,01,30,00,44,0.00
2006,01,30,00,45,3.20
2006,01,30,00,46,4.80
2006,01,30,00,47,0.00
2006,01,30,00,48,0.00
2006,01,30,00,49,4.80
2006,01,30,00,50,3.20
2006,01,30,00,51,3.20
2006,01,30,00,52,3.20
2006,01,30,00,53,3.20
2006,01,30,00,54,4.80
2006,01,30,00,55,11.30
2006,01,30,00,56,9.60
2006,01,30,00,57,3.20
2006,01,30,00,58,1.60
2006,01,30,00,59,8.10
2006,01,30,01,00,4.80
2006,01,30,01,01,8.10
2006,01,30,01,02,6.40
2006,01,30,01,03,9.60
2006,01,30,01,04,8.10
2006,01,30,01,05,1.60
2006,01,30,01,06,3.20
2006,01,30,01,07,3.20
2006,01,30,01,08,1.60
2006,01,30,01,09,1.60
2006,01,30,01,10,4.80
2006,01,30,01,11,4.80
2006,01,30,01,12,3.20
2006,01,30,01,13,1.60
2006,01,30,01,14,1.60
2006,01,30,01,15,8.10
2006,01,30,01,16,3.20
2006,01,30,01,17,3.20
2006,01,30,01,18,4.80
2006,01,30,01,19,3.20
2006,01,30,01,20,4.80
2006,01,30,01,21,6.40
2006,01,30,01,22,6.40
2006,01,30,01,23,0.00
2006,01,30,01,24,1.60
2006,01,30,01,25,1.60
2006,01,30,01,26,3.20
2006,01,30,01,27,3.20
2006,01,30,01,28,4.80
2006,01,30,01,29,3.20
2006,01,30,01,30,1.60
2006,01,30,01,31,4.80
2006,01,30,01,32,12.90
2006,01,30,01,33,9.60
2006,01,30,01,34,6.40
2006,01,30,01,35,8.10
2006,01,30,01,36,6.40
2006,01,30,01,37,8.10
2006,01,30,01,38,6.40
2006,01,30,01,39,9.60
2006,01,30,01,40,9.60
2006,01,30,01,41,6.40
2006,01,30,01,42,4.80
2006,01,30,01,43,11.30
2006,01,30,01,44,4.80
2006,01,30,01,45,4.80
2006,01,30,01,46,8.10
2006,01,30,01,47,8.10
2006,01,30,01,48,9.60
2006,01,30,01,49,4.80
2006,01,30,01,50,9.60
2006,01,30,01,51,4.80
2006,01,30,01,52,4.80
2006,01,30,01,53,8.10
2006,01,30,01,54,9.60
2006,01,30,01,55,11.30
2006,01,30,01,56,4.80
2006,01,30,01,57,4.80
2006,01,30,01,58,8.10
2006,01,30,01,59,4.80
2006,01,30,02,00,8.10
2006,01,30,02,01,9.60
2006,01,30,02,02,8.10
2006,01,30,02,03,3.20
2006,01,30,02,04,1.60
2006,01,30,02,05,6.40
2006,01,30,02,06,1.60
2006,01,30,02,07,3.20
2006,01,30,02,08,8.10
2006,01,30,02,09,3.20
2006,01,30,02,10,1.60
2006,01,30,02,11,3.20
2006,01,30,02,12,6.40
2006,01,30,02,13,3.20
2006,01,30,02,14,3.20
2006,01,30,02,15,1.60
2006,01,30,02,16,8.10
2006,01,30,02,17,8.10
2006,01,30,02,18,3.20
2006,01,30,02,19,1.60
2006,01,30,02,20,1.60
2006,01,30,02,21,1.60
2006,01,30,02,22,4.80
2006,01,30,02,23,6.40
2006,01,30,02,24,6.40
2006,01,30,02,25,9.60
2006,01,30,02,26,8.10
2006,01,30,02,27,0.00
2006,01,30,02,28,3.20
2006,01,30,02,29,0.00
2006,01,30,02,30,6.40
2006,01,30,02,31,6.40
2006,01,30,02,32,3.20
2006,01,30,02,33,3.20
2006,01,30,02,34,4.80
2006,01,30,02,35,1.60
2006,01,30,02,36,3.20
2006,01,30,02,37,1.60
2006,01,30,02,38,11.30
2006,01,30,02,39,9.60
2006,01,30,02,40,9.60
2006,01,30,02,41,4.80
2006,01,30,02,42,4.80
2006,01,30,02,43,8.10
2006,01,30,02,44,6.40
2006,01,30,02,45,3.20
2006,01,30,02,46,1.60
2006,01,30,02,47,4.80
2006,01,30,02,48,3.20
2006,01,30,02,49,4.80
2006,01,30,02,50,3.20
2006,01,30,02,51,1.60
2006,01,30,02,52,6.40
2006,01,30,02,53,9.60
2006,01,30,02,54,4.80
2006,01,30,02,55,3.20
2006,01,30,02,56,0.00
2006,01,30,02,57,1.60
2006,01,30,02,58,1.60
2006,01,30,02,59,11.30
2006,01,30,03,00,4.80
2006,01,30,03,01,11.30
2006,01,30,03,02,6.40
2006,01,30,03,03,3.20
2006,01,30,03,04,12.90
2006,01,30,03,05,8.10
2006,01,30,03,06,9.60
2006,01,30,03,07,3.20
2006,01,30,03,08,4.80
2006,01,30,03,09,4.80
2006,01,30,03,10,8.10
2006,01,30,03,11,4.80
2006,01,30,03,12,4.80
2006,01,30,03,13,4.80
2006,01,30,03,14,3.20
2006,01,30,03,15,3.20
2006,01,30,03,16,1.60
2006,01,30,03,17,3.20
2006,01,30,03,18,4.80
2006,01,30,03,19,3.20
2006,01,30,03,20,3.20
2006,01,30,03,21,4.80
2006,01,30,03,22,4.80
2006,01,30,03,23,4.80
2006,01,30,03,24,4.80
2006,01,30,03,25,1.60
2006,01,30,03,26,4.80
2006,01,30,03,27,4.80
2006,01,30,03,28,6.40
2006,01,30,03,29,0.00
2006,01,30,03,30,3.20
2006,01,30,03,31,4.80
2006,01,30,03,32,9.60
2006,01,30,03,33,8.10
2006,01,30,03,34,1.60
2006,01,30,03,35,9.60
2006,01,30,03,36,6.40
2006,01,30,03,37,4.80
2006,01,30,03,38,1.60
2006,01,30,03,39,4.80
2006,01,30,03,40,1.60
2006,01,30,03,41,1.60
2006,01,30,03,42,0.00
2006,01,30,03,43,1.60
2006,01,30,03,44,3.20
2006,01,30,03,45,1.60
2006,01,30,03,46,0.00
2006,01,30,03,47,1.60
2006,01,30,03,48,1.60
2006,01,30,03,49,1.60
2006,01,30,03,50,0.00
2006,01,30,03,51,0.00
2006,01,30,03,52,0.00
2006,01,30,03,53,0.00
2006,01,30,03,54,1.60
2006,01,30,03,55,3.20
2006,01,30,03,56,4.80
2006,01,30,03,57,3.20
2006,01,30,03,58,3.20
2006,01,30,03,59,4.80
2006,01,30,04,00,6.40
2006,01,30,04,01,4.80
2006,01,30,04,02,6.40
2006,01,30,04,03,8.10
2006,01,30,04,04,3.20
2006,01,30,04,05,4.80
2006,01,30,04,06,4.80
2006,01,30,04,07,3.20
2006,01,30,04,08,6.40
2006,01,30,04,09,3.20
2006,01,30,04,10,1.60
2006,01,30,04,11,3.20
2006,01,30,04,12,4.80
2006,01,30,04,13,4.80
2006,01,30,04,14,4.80
2006,01,30,04,15,3.20
2006,01,30,04,16,6.40
2006,01,30,04,17,4.80
2006,01,30,04,18,6.40
2006,01,30,04,19,4.80
2006,01,30,04,20,9.60
2006,01,30,04,21,4.80
2006,01,30,04,22,3.20
2006,01,30,04,23,3.20
2006,01,30,04,24,4.80
2006,01,30,04,25,1.60
2006,01,30,04,26,9.60
2006,01,30,04,27,8.10
2006,01,30,04,28,4.80
2006,01,30,04,29,4.80
2006,01,30,04,30,4.80
2006,01,30,04,31,3.20
2006,01,30,04,32,8.10
2006,01,30,04,33,6.40
2006,01,30,04,34,4.80
2006,01,30,04,35,1.60
2006,01,30,04,36,4.80
2006,01,30,04,37,6.40
2006,01,30,04,38,3.20
2006,01,30,04,39,3.20
2006,01,30,04,40,4.80
2006,01,30,04,41,3.20
2006,01,30,04,42,3.20
2006,01,30,04,43,1.60
2006,01,30,04,44,4.80
2006,01,30,04,45,6.40
2006,01,30,04,46,4.80
2006,01,30,04,47,3.20
2006,01,30,04,48,3.20
2006,01,30,04,49,3.20
2006,01,30,04,50,3.20
2006,01,30,04,51,3.20
2006,01,30,04,52,3.20
2006,01,30,04,53,3.20
2006,01,30,04,54,3.20
2006,01,30,04,55,9.60
2006,01,30,04,56,3.20
2006,01,30,04,57,3.20
2006,01,30,04,58,1.60
2006,01,30,04,59,0.00
2006,01,30,05,00,3.20
2006,01,30,05,01,4.80
2006,01,30,05,02,6.40
2006,01,30,05,03,6.40
2006,01,30,05,04,3.20
2006,01,30,05,05,3.20
2006,01,30,05,06,8.10
2006,01,30,05,07,3.20
2006,01,30,05,08,0.00
2006,01,30,05,09,1.60
2006,01,30,05,10,3.20
2006,01,30,05,11,1.60
2006,01,30,05,12,0.00
2006,01,30,05,13,1.60
2006,01,30,05,14,4.80
2006,01,30,05,15,3.20
2006,01,30,05,16,3.20
2006,01,30,05,17,1.60
2006,01,30,05,18,3.20
2006,01,30,05,19,1.60
2006,01,30,05,20,4.80
2006,01,30,05,21,3.20
2006,01,30,05,22,4.80
2006,01,30,05,23,1.60
2006,01,30,05,24,1.60
2006,01,30,05,25,3.20
2006,01,30,05,26,1.60
2006,01,30,05,27,6.40
2006,01,30,05,28,6.40
2006,01,30,05,29,1.60
2006,01,30,05,30,11.30
2006,01,30,05,31,8.10
2006,01,30,05,32,0.00
2006,01,30,05,33,3.20
2006,01,30,05,34,1.60
2006,01,30,05,35,3.20
2006,01,30,05,36,6.40
2006,01,30,05,37,8.10
2006,01,30,05,38,4.80
2006,01,30,05,39,4.80
2006,01,30,05,40,8.10
2006,01,30,05,41,4.80
2006,01,30,05,42,1.60
2006,01,30,05,43,6.40
2006,01,30,05,44,1.60
2006,01,30,05,45,0.00
2006,01,30,05,46,4.80
2006,01,30,05,47,3.20
2006,01,30,05,48,3.20
2006,01,30,05,49,0.00
2006,01,30,05,50,6.40
2006,01,30,05,51,1.60
2006,01,30,05,52,1.60
2006,01,30,05,53,1.60
2006,01,30,05,54,3.20
2006,01,30,05,55,3.20
2006,01,30,05,56,3.20
2006,01,30,05,57,3.20
2006,01,30,05,58,1.60
2006,01,30,05,59,4.80
2006,01,30,06,00,3.20
2006,01,30,06,01,0.00
2006,01,30,06,02,3.20
2006,01,30,06,03,0.00
2006,01,30,06,04,3.20
2006,01,30,06,05,4.80
2006,01,30,06,06,1.60
2006,01,30,06,07,3.20
2006,01,30,06,08,3.20
2006,01,30,06,09,4.80
2006,01,30,06,10,3.20
2006,01,30,06,11,6.40
2006,01,30,06,12,4.80
2006,01,30,06,13,6.40
2006,01,30,06,14,3.20
2006,01,30,06,15,9.60
2006,01,30,06,16,9.60
2006,01,30,06,17,8.10
2006,01,30,06,18,6.40
2006,01,30,06,19,8.10
2006,01,30,06,20,14.50
2006,01,30,06,21,8.10
2006,01,30,06,22,14.50
2006,01,30,06,23,8.10
2006,01,30,06,24,4.80
2006,01,30,06,25,4.80
2006,01,30,06,26,6.40
2006,01,30,06,27,6.40
2006,01,30,06,28,4.80
2006,01,30,06,29,9.60
2006,01,30,06,30,9.60
2006,01,30,06,31,8.10
2006,01,30,06,32,8.10
2006,01,30,06,33,3.20
2006,01,30,06,34,8.10
2006,01,30,06,35,6.40
2006,01,30,06,36,4.80
2006,01,30,06,37,4.80
2006,01,30,06,38,6.40
2006,01,30,06,39,3.20
2006,01,30,06,40,11.30
2006,01,30,06,41,4.80
2006,01,30,06,42,3.20
2006,01,30,06,43,8.10
2006,01,30,06,44,1.60
2006,01,30,06,45,1.60
2006,01,30,06,46,0.00
2006,01,30,06,47,0.00
2006,01,30,06,48,3.20
2006,01,30,06,49,1.60
2006,01,30,06,50,1.60
2006,01,30,06,51,0.00
2006,01,30,06,52,4.80
2006,01,30,06,53,6.40
2006,01,30,06,54,8.10
2006,01,30,06,55,6.40
2006,01,30,06,56,8.10
2006,01,30,06,57,6.40
2006,01,30,06,58,4.80
2006,01,30,06,59,3.20
2006,01,30,07,00,4.80
2006,01,30,07,01,8.10
2006,01,30,07,02,1.60
2006,01,30,07,03,8.10
2006,01,30,07,04,14.50
2006,01,30,07,05,4.80
2006,01,30,07,06,3.20
2006,01,30,07,07,9.60
2006,01,30,07,08,6.40
2006,01,30,07,09,4.80
2006,01,30,07,10,3.20
2006,01,30,07,11,3.20
2006,01,30,07,12,3.20
2006,01,30,07,13,4.80
2006,01,30,07,14,3.20
2006,01,30,07,15,3.20
2006,01,30,07,16,3.20
2006,01,30,07,17,1.60
2006,01,30,07,18,1.60
2006,01,30,07,19,3.20
2006,01,30,07,20,3.20
2006,01,30,07,21,1.60
2006,01,30,07,22,6.40
2006,01,30,07,23,3.20
2006,01,30,07,24,1.60
2006,01,30,07,25,3.20
2006,01,30,07,26,3.20
2006,01,30,07,27,0.00
2006,01,30,07,28,9.60
2006,01,30,07,29,8.10
2006,01,30,07,30,6.40
2006,01,30,07,31,9.60
2006,01,30,07,32,4.80
2006,01,30,07,33,3.20
2006,01,30,07,34,6.40
2006,01,30,07,35,14.50
2006,01,30,07,36,9.60
2006,01,30,07,37,3.20
2006,01,30,07,38,9.60
2006,01,30,07,39,1.60
2006,01,30,07,40,6.40
2006,01,30,07,41,11.30
2006,01,30,07,42,8.10
2006,01,30,07,43,8.10
2006,01,30,07,44,4.80
2006,01,30,07,45,3.20
2006,01,30,07,46,3.20
2006,01,30,07,47,3.20
2006,01,30,07,48,3.20
2006,01,30,07,49,4.80
2006,01,30,07,50,3.20
2006,01,30,07,51,11.30
2006,01,30,07,52,3.20
2006,01,30,07,53,8.10
2006,01,30,07,54,3.20
2006,01,30,07,55,12.90
2006,01,30,07,56,4.80
2006,01,30,07,57,3.20
2006,01,30,07,58,3.20
2006,01,30,07,59,3.20
2006,01,30,08,00,3.20
2006,01,30,08,01,1.60
2006,01,30,08,02,11.30
2006,01,30,08,03,6.40
2006,01,30,08,04,3.20
2006,01,30,08,05,3.20
2006,01,30,08,06,3.20
2006,01,30,08,07,6.40
2006,01,30,08,08,3.20
2006,01,30,08,09,3.20
2006,01,30,08,10,1.60
2006,01,30,08,11,6.40
2006,01,30,08,12,1.60
2006,01,30,08,13,1.60
2006,01,30,08,14,8.10
2006,01,30,08,15,6.40
2006,01,30,08,16,9.60
2006,01,30,08,17,9.60
2006,01,30,08,18,11.30
2006,01,30,08,19,8.10
2006,01,30,08,20,3.20
2006,01,30,08,21,4.80
2006,01,30,08,22,1.60
2006,01,30,08,23,8.10
2006,01,30,08,24,3.20
2006,01,30,08,25,3.20
2006,01,30,08,26,4.80
2006,01,30,08,27,3.20
2006,01,30,08,28,3.20
2006,01,30,08,29,4.80
2006,01,30,08,30,3.20
2006,01,30,08,31,3.20
2006,01,30,08,32,8.10
2006,01,30,08,33,1.60
2006,01,30,08,34,4.80
2006,01,30,08,35,1.60
2006,01,30,08,36,0.00
2006,01,30,08,37,0.00
2006,01,30,08,38,0.00
2006,01,30,08,39,3.20
2006,01,30,08,40,3.20
2006,01,30,08,41,6.40
2006,01,30,08,42,3.20
2006,01,30,08,43,3.20
2006,01,30,08,44,6.40
2006,01,30,08,45,0.00
2006,01,30,08,46,6.40
2006,01,30,08,47,4.80
2006,01,30,08,48,3.20
2006,01,30,08,49,1.60
2006,01,30,08,50,0.00
2006,01,30,08,51,4.80
2006,01,30,08,52,0.00
2006,01,30,08,53,3.20
2006,01,30,08,54,3.20
2006,01,30,08,55,3.20
2006,01,30,08,56,3.20
2006,01,30,08,57,0.00
2006,01,30,08,58,4.80
2006,01,30,08,59,6.40
2006,01,30,09,00,4.80
2006,01,30,09,01,4.80
2006,01,30,09,02,3.20
2006,01,30,09,03,1.60
2006,01,30,09,04,6.40
2006,01,30,09,05,3.20
2006,01,30,09,06,3.20
2006,01,30,09,07,3.20
2006,01,30,09,08,8.10
2006,01,30,09,09,3.20
2006,01,30,09,10,1.60
2006,01,30,09,11,0.00
2006,01,30,09,12,0.00
2006,01,30,09,13,3.20
2006,01,30,09,14,1.60
2006,01,30,09,15,0.00
2006,01,30,09,16,0.00
2006,01,30,09,17,8.10
2006,01,30,09,18,9.60
2006,01,30,09,19,9.60
2006,01,30,09,20,3.20
2006,01,30,09,21,1.60
2006,01,30,09,22,3.20
2006,01,30,09,23,3.20
2006,01,30,09,24,3.20
2006,01,30,09,25,3.20
2006,01,30,09,26,0.00
2006,01,30,09,27,0.00
2006,01,30,09,28,1.60
2006,01,30,09,29,4.80
2006,01,30,09,30,8.10
2006,01,30,09,31,11.30
2006,01,30,09,32,6.40
2006,01,30,09,33,9.60
2006,01,30,09,34,8.10
2006,01,30,09,35,4.80
2006,01,30,09,36,9.60
2006,01,30,09,37,6.40
2006,01,30,09,38,6.40
2006,01,30,09,39,3.20
2006,01,30,09,40,9.60
2006,01,30,09,41,4.80
2006,01,30,09,42,4.80
2006,01,30,09,43,6.40
2006,01,30,09,44,9.60
2006,01,30,09,45,8.10
2006,01,30,09,46,3.20
2006,01,30,09,47,4.80
2006,01,30,09,48,3.20
2006,01,30,09,49,1.60
2006,01,30,09,50,3.20
2006,01,30,09,51,8.10
2006,01,30,09,52,16.10
2006,01,30,09,53,19.30
2006,01,30,09,54,12.90
2006,01,30,09,55,9.60
2006,01,30,09,56,9.60
2006,01,30,09,57,8.10
2006,01,30,09,58,6.40
2006,01,30,09,59,8.10
2006,01,30,10,00,8.10
2006,01,30,10,01,9.60
2006,01,30,10,02,11.30
2006,01,30,10,03,8.10
2006,01,30,10,04,11.30
2006,01,30,10,05,17.70
2006,01,30,10,06,11.30
2006,01,30,10,07,14.50
2006,01,30,10,08,8.10
2006,01,30,10,09,12.90
2006,01,30,10,10,9.60
2006,01,30,10,11,14.50
2006,01,30,10,12,8.10
2006,01,30,10,13,8.10
2006,01,30,10,14,8.10
2006,01,30,10,15,11.30
2006,01,30,10,16,9.60
2006,01,30,10,17,3.20
2006,01,30,10,18,14.50
2006,01,30,10,19,11.30
2006,01,30,10,20,4.80
2006,01,30,10,21,6.40
2006,01,30,10,22,9.60
2006,01,30,10,23,8.10
2006,01,30,10,24,14.50
2006,01,30,10,25,4.80
2006,01,30,10,26,8.10
2006,01,30,10,27,8.10
2006,01,30,10,28,6.40
2006,01,30,10,29,9.60
2006,01,30,10,30,14.50
2006,01,30,10,31,9.60
2006,01,30,10,32,19.30
2006,01,30,10,33,17.70
2006,01,30,10,34,8.10
2006,01,30,10,35,6.40
2006,01,30,10,36,9.60
2006,01,30,10,37,17.70
2006,01,30,10,38,19.30
2006,01,30,10,39,16.10
2006,01,30,10,40,20.90
2006,01,30,10,41,17.70
2006,01,30,10,42,25.70
2006,01,30,10,43,9.60
2006,01,30,10,44,17.70
2006,01,30,10,45,20.90
2006,01,30,10,46,24.20
2006,01,30,10,47,22.50
2006,01,30,10,48,14.50
2006,01,30,10,49,8.10
2006,01,30,10,50,11.30
2006,01,30,10,51,9.60
2006,01,30,10,52,25.70
2006,01,30,10,53,16.10
2006,01,30,10,54,19.30
2006,01,30,10,55,17.70
2006,01,30,10,56,8.10
2006,01,30,10,57,4.80
2006,01,30,10,58,6.40
2006,01,30,10,59,20.90
2006,01,30,11,00,22.50
2006,01,30,11,01,17.70
2006,01,30,11,02,14.50
2006,01,30,11,03,11.30
2006,01,30,11,04,20.90
2006,01,30,11,05,24.20
2006,01,30,11,06,27.40
2006,01,30,11,07,17.70
2006,01,30,11,08,16.10
2006,01,30,11,09,9.60
2006,01,30,11,10,22.50
2006,01,30,11,11,22.50
2006,01,30,11,12,20.90
2006,01,30,11,13,24.20
2006,01,30,11,14,11.30
2006,01,30,11,15,24.20
2006,01,30,11,16,11.30
2006,01,30,11,17,19.30
2006,01,30,11,18,14.50
2006,01,30,11,19,22.50
2006,01,30,11,20,22.50
2006,01,30,11,21,27.40
2006,01,30,11,22,17.70
2006,01,30,11,23,6.40
2006,01,30,11,24,29.00
2006,01,30,11,25,20.90
2006,01,30,11,26,20.90
2006,01,30,11,27,16.10
2006,01,30,11,28,27.40
2006,01,30,11,29,9.60
2006,01,30,11,30,16.10
2006,01,30,11,31,17.70
2006,01,30,11,32,11.30
2006,01,30,11,33,27.40
2006,01,30,11,34,19.30
2006,01,30,11,35,19.30
2006,01,30,11,36,17.70
2006,01,30,11,37,6.40
2006,01,30,11,38,22.50
2006,01,30,11,39,16.10
2006,01,30,11,40,16.10
2006,01,30,11,41,24.20
2006,01,30,11,42,29.00
2006,01,30,11,43,9.60
2006,01,30,11,44,17.70
2006,01,30,11,45,11.30
2006,01,30,11,46,20.90
2006,01,30,11,47,16.10
2006,01,30,11,48,24.20
2006,01,30,11,49,27.40
2006,01,30,11,50,30.60
2006,01,30,11,51,35.40
2006,01,30,11,52,24.20
2006,01,30,11,53,14.50
2006,01,30,11,54,14.50
2006,01,30,11,55,16.10
2006,01,30,11,56,6.40
2006,01,30,11,57,17.70
2006,01,30,11,58,22.50
2006,01,30,11,59,8.10
2006,01,30,12,00,14.50
2006,01,30,12,01,17.70
2006,01,30,12,02,20.90
2006,01,30,12,03,8.10
2006,01,30,12,04,6.40
2006,01,30,12,05,17.70
2006,01,30,12,06,20.90
2006,01,30,12,07,33.80
2006,01,30,12,08,19.30
2006,01,30,12,09,12.90
2006,01,30,12,10,22.50
2006,01,30,12,11,14.50
2006,01,30,12,12,9.60
2006,01,30,12,13,16.10
2006,01,30,12,14,17.70
2006,01,30,12,15,11.30
2006,01,30,12,16,9.60
2006,01,30,12,17,4.80
2006,01,30,12,18,12.90
2006,01,30,12,19,25.70
2006,01,30,12,20,19.30
2006,01,30,12,21,16.10
2006,01,30,12,22,22.50
2006,01,30,12,23,25.70
2006,01,30,12,24,16.10
2006,01,30,12,25,22.50
2006,01,30,12,26,16.10
2006,01,30,12,27,16.10
2006,01,30,12,28,24.20
2006,01,30,12,29,24.20
2006,01,30,12,30,20.90
2006,01,30,12,31,12.90
2006,01,30,12,32,4.80
2006,01,30,12,33,20.90
2006,01,30,12,34,16.10
2006,01,30,12,35,11.30
2006,01,30,12,36,24.20
2006,01,30,12,37,20.90
2006,01,30,12,38,9.60
2006,01,30,12,39,24.20
2006,01,30,12,40,25.70
2006,01,30,12,41,20.90
2006,01,30,12,42,19.30
2006,01,30,12,43,24.20
2006,01,30,12,44,17.70
2006,01,30,12,45,24.20
2006,01,30,12,46,17.70
2006,01,30,12,47,8.10
2006,01,30,12,48,17.70
2006,01,30,12,49,16.10
2006,01,30,12,50,12.90
2006,01,30,12,51,22.50
2006,01,30,12,52,16.10
2006,01,30,12,53,6.40
2006,01,30,12,54,22.50
2006,01,30,12,55,20.90
2006,01,30,12,56,11.30
2006,01,30,12,57,16.10
2006,01,30,12,58,12.90
2006,01,30,12,59,29.00
2006,01,30,13,00,29.00
2006,01,30,13,01,22.50
2006,01,30,13,02,14.50
2006,01,30,13,03,14.50
2006,01,30,13,04,25.70
2006,01,30,13,05,19.30
2006,01,30,13,06,6.40
2006,01,30,13,07,9.60
2006,01,30,13,08,9.60
2006,01,30,13,09,17.70
2006,01,30,13,10,8.10
2006,01,30,13,11,12.90
2006,01,30,13,12,11.30
2006,01,30,13,13,8.10
2006,01,30,13,14,16.10
2006,01,30,13,15,19.30
2006,01,30,13,16,17.70
2006,01,30,13,17,9.60
2006,01,30,13,18,19.30
2006,01,30,13,19,16.10
2006,01,30,13,20,12.90
2006,01,30,13,21,17.70
2006,01,30,13,22,20.90
2006,01,30,13,23,11.30
2006,01,30,13,24,9.60
2006,01,30,13,25,8.10
2006,01,30,13,26,8.10
2006,01,30,13,27,6.40
2006,01,30,13,28,8.10
2006,01,30,13,29,19.30
2006,01,30,13,30,14.50
2006,01,30,13,31,8.10
2006,01,30,13,32,9.60
2006,01,30,13,33,8.10
2006,01,30,13,34,6.40
2006,01,30,13,35,3.20
2006,01,30,13,36,1.60
2006,01,30,13,37,4.80
2006,01,30,13,38,4.80
2006,01,30,13,39,4.80
2006,01,30,13,40,1.60
2006,01,30,13,41,0.00
2006,01,30,13,42,3.20
2006,01,30,13,43,4.80
2006,01,30,13,44,6.40
2006,01,30,13,45,4.80
2006,01,30,13,46,6.40
2006,01,30,13,47,3.20
2006,01,30,13,48,6.40
2006,01,30,13,49,8.10
2006,01,30,13,50,9.60
2006,01,30,13,51,20.90
2006,01,30,13,52,16.10
2006,01,30,13,53,9.60
2006,01,30,13,54,14.50
2006,01,30,13,55,11.30
2006,01,30,13,56,14.50
2006,01,30,13,57,9.60
2006,01,30,13,58,17.70
2006,01,30,13,59,14.50
2006,01,30,14,00,20.90
2006,01,30,14,01,22.50
2006,01,30,14,02,16.10
2006,01,30,14,03,19.30
2006,01,30,14,04,16.10
2006,01,30,14,05,35.40
2006,01,30,14,06,27.40
2006,01,30,14,07,24.20
2006,01,30,14,08,19.30
2006,01,30,14,09,20.90
2006,01,30,14,10,27.40
2006,01,30,14,11,22.50
2006,01,30,14,12,29.00
2006,01,30,14,13,25.70
2006,01,30,14,14,33.80
2006,01,30,14,15,33.80
2006,01,30,14,16,9.60
2006,01,30,14,17,19.30
2006,01,30,14,18,22.50
2006,01,30,14,19,22.50
2006,01,30,14,20,17.70
2006,01,30,14,21,12.90
2006,01,30,14,22,14.50
2006,01,30,14,23,25.70
2006,01,30,14,24,17.70
2006,01,30,14,25,16.10
2006,01,30,14,26,9.60
2006,01,30,14,27,25.70
2006,01,30,14,28,24.20
2006,01,30,14,29,6.40
2006,01,30,14,30,11.30
2006,01,30,14,31,11.30
2006,01,30,14,32,17.70
2006,01,30,14,33,16.10
2006,01,30,14,34,14.50
2006,01,30,14,35,20.90
2006,01,30,14,36,11.30
2006,01,30,14,37,16.10
2006,01,30,14,38,17.70
2006,01,30,14,39,24.20
2006,01,30,14,40,17.70
2006,01,30,14,41,17.70
2006,01,30,14,42,16.10
2006,01,30,14,43,25.70
2006,01,30,14,44,25.70
2006,01,30,14,45,11.30
2006,01,30,14,46,22.50
2006,01,30,14,47,16.10
2006,01,30,14,48,16.10
2006,01,30,14,49,22.50
2006,01,30,14,50,25.70
2006,01,30,14,51,25.70
2006,01,30,14,52,20.90
2006,01,30,14,53,20.90
2006,01,30,14,54,16.10
2006,01,30,14,55,29.00
2006,01,30,14,56,29.00
2006,01,30,14,57,19.30
2006,01,30,14,58,16.10
2006,01,30,14,59,11.30
2006,01,30,15,00,17.70
2006,01,30,15,01,16.10
2006,01,30,15,02,14.50
2006,01,30,15,03,25.70
2006,01,30,15,04,24.20
2006,01,30,15,05,22.50
2006,01,30,15,06,9.60
2006,01,30,15,07,17.70
2006,01,30,15,08,16.10
2006,01,30,15,09,9.60
2006,01,30,15,10,14.50
2006,01,30,15,11,11.30
2006,01,30,15,12,9.60
2006,01,30,15,13,6.40
2006,01,30,15,14,8.10
2006,01,30,15,15,19.30
2006,01,30,15,16,22.50
2006,01,30,15,17,14.50
2006,01,30,15,18,9.60
2006,01,30,15,19,6.40
2006,01,30,15,20,24.20
2006,01,30,15,21,20.90
2006,01,30,15,22,8.10
2006,01,30,15,23,20.90
2006,01,30,15,24,22.50
2006,01,30,15,25,16.10
2006,01,30,15,26,17.70
2006,01,30,15,27,8.10
2006,01,30,15,28,14.50
2006,01,30,15,29,6.40
2006,01,30,15,30,17.70
2006,01,30,15,31,17.70
2006,01,30,15,32,11.30
2006,01,30,15,33,17.70
2006,01,30,15,34,16.10
2006,01,30,15,35,24.20
2006,01,30,15,36,19.30
2006,01,30,15,37,8.10
2006,01,30,15,38,11.30
2006,01,30,15,39,16.10
2006,01,30,15,40,16.10
2006,01,30,15,41,24.20
2006,01,30,15,42,14.50
2006,01,30,15,43,12.90
2006,01,30,15,44,9.60
2006,01,30,15,45,6.40
2006,01,30,15,46,11.30
2006,01,30,15,47,8.10
2006,01,30,15,48,6.40
2006,01,30,15,49,8.10
2006,01,30,15,50,9.60
2006,01,30,15,51,8.10
2006,01,30,15,52,12.90
2006,01,30,15,53,8.10
2006,01,30,15,54,14.50
2006,01,30,15,55,14.50
2006,01,30,15,56,1.60
2006,01,30,15,57,6.40
2006,01,30,15,58,6.40
2006,01,30,15,59,19.30
2006,01,30,16,00,19.30
2006,01,30,16,01,11.30
2006,01,30,16,02,0.00
2006,01,30,16,03,3.20
2006,01,30,16,04,6.40
2006,01,30,16,05,4.80
2006,01,30,16,06,4.80
2006,01,30,16,07,4.80
2006,01,30,16,08,9.60
2006,01,30,16,09,6.40
2006,01,30,16,10,16.10
2006,01,30,16,11,9.60
2006,01,30,16,12,4.80
2006,01,30,16,13,6.40
2006,01,30,16,14,14.50
2006,01,30,16,15,14.50
2006,01,30,16,16,20.90
2006,01,30,16,17,8.10
2006,01,30,16,18,17.70
2006,01,30,16,19,19.30
2006,01,30,16,20,9.60
2006,01,30,16,21,3.20
2006,01,30,16,22,8.10
2006,01,30,16,23,11.30
2006,01,30,16,24,16.10
2006,01,30,16,25,6.40
2006,01,30,16,26,11.30
2006,01,30,16,27,19.30
2006,01,30,16,28,16.10
2006,01,30,16,29,9.60
2006,01,30,16,30,16.10
2006,01,30,16,31,16.10
2006,01,30,16,32,4.80
2006,01,30,16,33,9.60
2006,01,30,16,34,6.40
2006,01,30,16,35,6.40
2006,01,30,16,36,9.60
2006,01,30,16,37,14.50
2006,01,30,16,38,8.10
2006,01,30,16,39,8.10
2006,01,30,16,40,6.40
2006,01,30,16,41,19.30
2006,01,30,16,42,16.10
2006,01,30,16,43,11.30
2006,01,30,16,44,9.60
2006,01,30,16,45,9.60
2006,01,30,16,46,8.10
2006,01,30,16,47,14.50
2006,01,30,16,48,11.30
2006,01,30,16,49,8.10
2006,01,30,16,50,9.60
2006,01,30,16,51,17.70
2006,01,30,16,52,17.70
2006,01,30,16,53,12.90
2006,01,30,16,54,11.30
2006,01,30,16,55,12.90
2006,01,30,16,56,11.30
2006,01,30,16,57,4.80
2006,01,30,16,58,6.40
2006,01,30,16,59,4.80
2006,01,30,17,00,4.80
2006,01,30,17,01,17.70
2006,01,30,17,02,16.10
2006,01,30,17,03,4.80
2006,01,30,17,04,14.50
2006,01,30,17,05,14.50
2006,01,30,17,06,8.10
2006,01,30,17,07,4.80
2006,01,30,17,08,4.80
2006,01,30,17,09,3.20
2006,01,30,17,10,6.40
2006,01,30,17,11,6.40
2006,01,30,17,12,11.30
2006,01,30,17,13,3.20
2006,01,30,17,14,6.40
2006,01,30,17,15,6.40
2006,01,30,17,16,8.10
2006,01,30,17,17,4.80
2006,01,30,17,18,11.30
2006,01,30,17,19,6.40
2006,01,30,17,20,4.80
2006,01,30,17,21,3.20
2006,01,30,17,22,14.50
2006,01,30,17,23,8.10
2006,01,30,17,24,14.50
2006,01,30,17,25,12.90
2006,01,30,17,26,4.80
2006,01,30,17,27,6.40
2006,01,30,17,28,8.10
2006,01,30,17,29,1.60
2006,01,30,17,30,8.10
2006,01,30,17,31,3.20
2006,01,30,17,32,3.20
2006,01,30,17,33,29.00
2006,01,30,17,34,19.30
2006,01,30,17,35,16.10
2006,01,30,17,36,14.50
2006,01,30,17,37,8.10
2006,01,30,17,38,9.60
2006,01,30,17,39,8.10
2006,01,30,17,40,9.60
2006,01,30,17,41,1.60
2006,01,30,17,42,8.10
2006,01,30,17,43,11.30
2006,01,30,17,44,14.50
2006,01,30,17,45,16.10
2006,01,30,17,46,8.10
2006,01,30,17,47,4.80
2006,01,30,17,48,14.50
2006,01,30,17,49,12.90
2006,01,30,17,50,4.80
2006,01,30,17,51,4.80